Weather History for Kahului, HI

Change the Weather History Date:

Saturday, October 29, 2011

  Actual Average Record
Temperature  
Mean Temperature 75 °F 78 °F  
Max Temperature 87 °F 86 °F 93 °F (1961)
Min Temperature 62 °F 69 °F 61 °F (1986)
Degree Days  
Heating Degree Days 0 0  
Month to date heating degree days 0 0  
Since 1 July heating degree days 0 0  
Cooling Degree Days 10 12  
Month to date cooling degree days 345 385  
Year to date cooling degree days 3345 3353  
Growing Degree Days 24 (Base 50)    
Moisture  
Dew Point 64 °F    
Average Humidity 65    
Maximum Humidity 84    
Minimum Humidity 45    
Precipitation  
Precipitation T in 0.05 in 0.41 in (1995)
Month to date precipitation 0.10 1.10  
Year to date precipitation 10.53 12.18  
Snow  
Snow 0.00 in - - ()
Month to date snowfall 0.0  
Since 1 July snowfall 0.0  
Since 1 September snowfall 0.0  
Snow Depth 0.00 in    
Sea Level Pressure  
Sea Level Pressure 29.95 in    
Wind  
Wind Speed 8 mph (NE)    
Max Wind Speed 25 mph    
Max Gust Speed 33 mph    
Visibility 10 miles    
Events Rain    
T = Trace of Precipitation, MM = Missing Value Source: NWS Daily Summary

Daily Weather History Graph

Daily Weather History Graph

Search for Another Location

Airport:

Trip Planner

Search our weather history database for the weather conditions in past years. The results will help you decide how hot, cold, wet, or windy it might be!

Date:

Astronomy

Oct. 29, 2011 Rise Set
Actual Time 6:26 AM HST 5:51 PM HST
Civil Twilight 6:04 AM HST 6:14 PM HST
Nautical Twilight 5:37 AM HST 6:40 PM HST
Astronomical Twilight 5:11 AM HST 7:06 PM HST
Moon 9:37 AM HST (10/29) 8:49 PM HST (10/29)
Length of Visible Light 12h 10m
Length of Day
11h 25m
Waxing Crescent, 13% of the Moon is Illuminated
Oct 29
Waxing Crescent
Nov 2
First Quarter
Nov 10
Full
Nov 18
Last Quarter
Nov 24
New

Hourly Weather History & Observations

Time (HST) Temp. Heat Index Dew Point Humidity Pressure Visibility Wind Dir Wind Speed Gust Speed Precip Events Conditions
12:54 AM 71.1 °F - 63.0 °F 75% 29.95 in 10.0 mi NNE 6.9 mph - N/A   Clear
1:54 AM 71.1 °F - 62.1 °F 73% 29.94 in 10.0 mi Calm Calm - N/A   Clear
2:54 AM 72.0 °F - 64.0 °F 76% 29.93 in 10.0 mi North 6.9 mph - N/A   Clear
3:54 AM 66.0 °F - 60.1 °F 81% 29.92 in 10.0 mi Calm Calm - N/A   Clear
4:54 AM 63.0 °F - 57.0 °F 81% 29.93 in 10.0 mi Calm Calm - N/A   Clear
5:54 AM 70.0 °F - 64.9 °F 84% 29.95 in 10.0 mi ENE 9.2 mph - 0.00 in   Mostly Cloudy
6:54 AM 70.0 °F - 64.9 °F 84% 29.96 in 10.0 mi East 3.5 mph - 0.00 in   Scattered Clouds
7:54 AM 71.1 °F - 64.9 °F 81% 29.97 in 10.0 mi NE 8.1 mph - N/A   Partly Cloudy
8:54 AM 75.0 °F - 64.9 °F 71% 29.99 in 10.0 mi NE 11.5 mph - N/A   Mostly Cloudy
9:54 AM 77.0 °F - 63.0 °F 62% 29.99 in 10.0 mi East 9.2 mph 17.3 mph N/A   Mostly Cloudy
10:54 AM 79.0 °F - 64.9 °F 62% 29.99 in 10.0 mi ENE 25.3 mph 33.4 mph 0.00 in Rain Rain
11:54 AM 79.0 °F - 66.0 °F 64% 29.96 in 10.0 mi ENE 10.4 mph - 0.00 in   Scattered Clouds
12:54 PM 78.1 °F - 66.9 °F 68% 29.93 in 10.0 mi NE 11.5 mph 21.9 mph N/A   Scattered Clouds
1:54 PM 82.9 °F 85.0 °F 66.0 °F 56% 29.87 in 10.0 mi ENE 17.3 mph - N/A   Scattered Clouds
2:54 PM 86.0 °F 86.3 °F 62.1 °F 44% 29.85 in 10.0 mi ENE 8.1 mph - N/A   Partly Cloudy
3:54 PM 82.9 °F 84.6 °F 64.9 °F 54% 29.86 in 10.0 mi NE 19.6 mph 26.5 mph N/A   Partly Cloudy
4:54 PM 78.1 °F - 64.0 °F 62% 29.90 in 10.0 mi ENE 21.9 mph 29.9 mph N/A   Partly Cloudy
5:54 PM 73.9 °F - 66.0 °F 76% 29.92 in 10.0 mi NE 18.4 mph 28.8 mph N/A   Scattered Clouds
6:54 PM 73.9 °F - 64.0 °F 71% 29.95 in 10.0 mi NE 15.0 mph 25.3 mph N/A   Clear
7:54 PM 73.0 °F - 63.0 °F 71% 29.98 in 10.0 mi NE 16.1 mph - N/A   Clear
8:54 PM 73.0 °F - 62.1 °F 68% 29.99 in 10.0 mi NE 10.4 mph - N/A   Clear
9:54 PM 73.0 °F - 63.0 °F 71% 30.00 in 10.0 mi NE 10.4 mph - N/A   Clear
10:54 PM 73.0 °F - 64.0 °F 73% 29.99 in 10.0 mi NE 15.0 mph - N/A   Clear
11:54 PM 73.0 °F - 62.1 °F 68% 29.98 in 10.0 mi NNE 11.5 mph - N/A   Clear